Myrtle Beach, SC

9:25 AM EST on February 24, 2018 (GMT -0500)
Myrtle Beach International

Weather History for KMYR - April, 2013

Change the Weather History Date:

Sunday, April 28, 2013

  Actual Average Record
Temperature  
Mean Temperature 66 °F -  
Max Temperature 69 °F 71 °F 90 °F (1954)
Min Temperature 62 °F 54 °F 41 °F (1993)
Growing Degree Days 16 (Base 50)    
Moisture  
Dew Point 59 °F    
Average Humidity 82    
Maximum Humidity 94    
Minimum Humidity 73    
Precipitation  
Precipitation 0.00 in - - ()
Sea Level Pressure  
Sea Level Pressure 30.18 in    
Wind  
Wind Speed 10 mph (ESE)    
Max Wind Speed 21 mph    
Max Gust Speed 25 mph    
Visibility 10 miles    
Events      
Averages and records for this station are not official NWS values.
T = Trace of Precipitation, MM = Missing Value Source: NWS Daily Summary

Daily Weather History Graph

Daily Weather History Graph

Search for Another Location

Airport or City:

Trip Planner

Search our weather history database for the weather conditions in past years. The results will help you decide how hot, cold, wet, or windy it might be!

Date:

Astronomy

Apr. 28, 2013 Rise Set
Actual Time 6:29 AM EDT 7:56 PM EDT
Civil Twilight 6:03 AM EDT 8:23 PM EDT
Nautical Twilight 5:32 AM EDT 8:54 PM EDT
Astronomical Twilight 4:59 AM EDT 9:28 PM EDT
Moon 11:20 PM EDT (4/28) 8:49 AM EDT (4/28)
Length of Visible Light 14h 19m
Length of Day
13h 26m
Waning Gibbous, 89% of the Moon is Illuminated
Apr 28
Waning Gibbous
May 2
Last Quarter
May 9
New
May 18
First Quarter
May 25
Full

Hourly Weather History & Observations

Time (EDT) Temp. Dew Point Humidity Pressure Visibility Wind Dir Wind Speed Gust Speed Precip Events Conditions
12:15 AM 62.6 °F 55.4 °F 77% 30.26 in 10.0 mi ENE 8.1 mph - N/A   Mostly Cloudy
12:35 AM 62.6 °F 55.4 °F 77% 30.25 in 10.0 mi ENE 10.4 mph - N/A   Mostly Cloudy
12:55 AM 62.6 °F 57.2 °F 82% 30.25 in 10.0 mi ENE 10.4 mph - N/A   Overcast
1:15 AM 62.6 °F 57.2 °F 82% 30.25 in 10.0 mi ENE 10.4 mph - N/A   Overcast
1:35 AM 62.6 °F 57.2 °F 82% 30.25 in 10.0 mi ENE 8.1 mph - N/A   Overcast
1:55 AM 62.6 °F 57.2 °F 82% 30.24 in 10.0 mi ENE 8.1 mph - N/A   Overcast
2:15 AM 62.6 °F 57.2 °F 82% 30.22 in 10.0 mi ENE 9.2 mph - N/A   Overcast
2:35 AM 62.6 °F 57.2 °F 82% 30.22 in 10.0 mi ENE 11.5 mph - N/A   Overcast
2:55 AM 62.6 °F 59.0 °F 88% 30.22 in 10.0 mi ENE 8.1 mph - N/A   Overcast
3:15 AM 62.6 °F 59.0 °F 88% 30.22 in 10.0 mi ENE 11.5 mph - N/A   Overcast
3:35 AM 62.6 °F 59.0 °F 88% 30.22 in 10.0 mi ENE 8.1 mph - N/A   Overcast
3:55 AM 62.6 °F 59.0 °F 88% 30.21 in 10.0 mi ENE 8.1 mph - N/A   Overcast
4:15 AM 62.6 °F 59.0 °F 88% 30.19 in 10.0 mi ENE 9.2 mph - N/A   Overcast
4:35 AM 62.6 °F 59.0 °F 88% 30.18 in 10.0 mi East 10.4 mph - N/A   Overcast
4:55 AM 62.6 °F 60.8 °F 94% 30.18 in 10.0 mi East 8.1 mph - N/A   Overcast
5:15 AM 62.6 °F 59.0 °F 88% 30.19 in 10.0 mi East 6.9 mph - N/A   Scattered Clouds
5:35 AM 62.6 °F 59.0 °F 88% 30.19 in 10.0 mi East 6.9 mph - N/A   Clear
5:55 AM 62.6 °F 59.0 °F 88% 30.20 in 10.0 mi East 5.8 mph - N/A   Clear
6:55 AM 64.4 °F 60.8 °F 88% 30.21 in 10.0 mi East 6.9 mph - N/A   Mostly Cloudy
8:45 AM 64.4 °F 59.0 °F 83% 30.22 in 10.0 mi ESE 9.2 mph - N/A   Mostly Cloudy
9:46 AM 68.0 °F 60.8 °F 78% 30.22 in 10.0 mi ESE 11.5 mph - N/A   Mostly Cloudy
12:45 PM 69.8 °F 60.8 °F 73% 30.21 in 10.0 mi SSE 13.8 mph - N/A   Mostly Cloudy
1:45 PM 69.8 °F 60.8 °F 73% 30.19 in 10.0 mi SE 17.3 mph - N/A   Mostly Cloudy
2:45 PM 69.8 °F 60.8 °F 73% 30.17 in 10.0 mi SE 13.8 mph - N/A   Overcast
3:45 PM 68.0 °F 60.8 °F 78% 30.15 in 10.0 mi SE 13.8 mph - N/A   Mostly Cloudy
4:45 PM 69.8 °F 60.8 °F 73% 30.12 in 10.0 mi SE 17.3 mph - N/A   Overcast
5:50 PM 68.0 °F 60.8 °F 78% 30.11 in 10.0 mi SE 13.8 mph - N/A   Overcast
6:50 PM 66.2 °F 60.8 °F 83% 30.10 in 10.0 mi SSE 20.7 mph 25.3 mph N/A   Overcast
7:45 PM 66.2 °F 60.8 °F 83% 30.10 in 10.0 mi SE 13.8 mph 23.0 mph N/A   Overcast
8:45 PM 66.2 °F 60.8 °F 83% 30.09 in 10.0 mi SE 15.0 mph - N/A   Mostly Cloudy
9:50 PM 66.2 °F 59.0 °F 78% 30.09 in 10.0 mi SSE 16.1 mph - N/A   Mostly Cloudy
10:55 PM 68.0 °F 60.8 °F 78% 30.09 in 10.0 mi SSE 15.0 mph 19.6 mph N/A   Mostly Cloudy
11:15 PM 68.0 °F 60.8 °F 78% 30.09 in 10.0 mi SSE 12.7 mph - N/A   Overcast
11:35 PM 68.0 °F 60.8 °F 78% 30.09 in 10.0 mi SSE 13.8 mph - N/A   Overcast
11:55 PM 68.0 °F 59.0 °F 73% 30.10 in 10.0 mi SSE 12.7 mph - N/A   Overcast